Regional Weather Roundup
Issued by NWS Upton, NY

Current Version | Previous Version | Text Only | Print | Product List | Glossary On
Versions: 1 2 3 4 5 6 7 8 9 10 11 12 13 14 15 16 17 18 19 20 21 22 23 24 25 26 27 28 29 30 31 32 33 34 35 36 37 38 39 40 41 42 43 44 45 46 47 48 49 50
000 ASUS41 KOKX 010805 RWROKX REGIONAL WEATHER ROUNDUP NATIONAL WEATHER SERVICE NEW YORK NY 400 AM EDT WED OCT 01 2014 NOTE: "FAIR" INDICATES FEW OR NO CLOUDS BELOW 12,000 FEET WITH NO SIGNIFICANT WEATHER AND/OR OBSTRUCTIONS TO VISIBILITY. NYZ071-072-176-178-NJZ106-104-010900- NEW YORK CITY METRO AREA CITY SKY/WX TMP DP RH WIND PRES REMARKS CENTRAL PARK CLOUDY 63 56 78 NE5 30.01S LAGUARDIA APRT CLOUDY 62 58 86 N7 29.98S KENNEDY INTL CLOUDY 62 58 86 N8 29.99S NEWARK/LIBERTY CLOUDY 63 57 81 N9 29.99S BRNX BOT. GARD N/A 61 55 82 SE1 30.01R TETERBORO CLOUDY 63 55 75 N6 29.98S $$ NYZ177-179-078>081-010900- LONG ISLAND NEW YORK CITY SKY/WX TMP DP RH WIND PRES REMARKS FARMINGDALE CLOUDY 62 58 86 NE8 29.97F ISLIP CLOUDY 61 57 87 NE7 29.96R SHIRLEY LGT RAIN 59 58 96 VRB5 29.98S FOG WESTHAMPTON LGT RAIN 59 57 93 N9 29.99S FOG MONTAUK POINT N/A 60 57 89 NE9G18 29.99R $$ NYZ052-065-067-010900- HUDSON VALLEY CITY SKY/WX TMP DP RH WIND PRES REMARKS WHITE PLAINS CLOUDY 59 56 89 NE6 29.99S NEWBURGH MOCLDY 57 57 100 CALM 30.02S MONTGOMERY CLOUDY 58 55 90 CALM 30.01S POUGHKEEPSIE CLOUDY 59 55 87 CALM 30.00S ALBANY CLOUDY 60 56 86 CALM 30.03S $$ NJZ001-105-106-008-010-013-015-019>022-104-010900- NEW JERSEY CITY SKY/WX TMP DP RH WIND PRES REMARKS NEWARK/LIBERTY CLOUDY 63 57 81 N9 29.99S TETERBORO CLOUDY 63 55 75 N6 29.98S CALDWELL CLOUDY 61 55 81 CALM 30.00S MORRISTOWN CLOUDY 63 57 82 CALM 30.00S SOMERVILLE CLOUDY 61 57 87 N5 29.98S LINDEN CLOUDY 67 61 79 N5 30.00S SUSSEX CLOUDY 61 56 83 CALM 30.01F ANDOVER N/A 58 56 93 CALM 30.01S TRENTON CLOUDY 62 57 83 NE5 29.97F MILLVILLE CLOUDY 62 60 93 N5 29.95S ATLANTIC CITY CLOUDY 63 62 97 N9 29.94F WRIGHTSTOWN LGT RAIN 61 61 100 NE6 29.95F FOG TOMS RIVER CLOUDY 61 59 94 N3 29.97S BELMAR CLOUDY 61 55 82 N7 29.97S $$ PAZ047>061-062-071-010900- EASTERN PENNSYLVANIA CITY SKY/WX TMP DP RH WIND PRES REMARKS PHILADELPHIA LGT RAIN 64 59 83 NE7 29.97F ALLENTOWN CLOUDY 61 58 90 NE3 29.99F SCRANTON LGT RAIN 62 56 80 CALM 30.00F $$ CTZ002-004>006-009-010-012-RIZ004-006-007-MAZ004-011-015-010900- SOUTHERN NEW ENGLAND IN CT CITY SKY/WX TMP DP RH WIND PRES REMARKS BRADLEY INTL LGT RAIN 59 57 93 N6 30.01S HARTFORD CLOUDY 58 56 93 VRB7 30.01S DANBURY CLOUDY 58 56 93 NE6 30.01S FOG WTRBRY/OXFORD CLOUDY 57 52 82 N12 30.02S BRIDGEPORT RAIN 60 58 92 N9 29.99R MERIDEN LGT RAIN 59 56 89 N7 30.00S NEW HAVEN LGT RAIN 61 57 87 N14 29.99S FOG CHESTER HVY RAIN 57 55 94 N8 30.00R GROTON CLOUDY 57 56 96 N13 29.97S WILLIMANTIC RAIN 58 55 90 N12 30.00F IN RI CITY SKY/WX TMP DP RH WIND PRES REMARKS PROVIDENCE CLOUDY 58 55 90 N15 30.00S BLOCK ISLAND CLOUDY 59 55 88 NE15G23 29.97S WESTERLY CLOUDY 57 56 96 N7 29.99R IN MA CITY SKY/WX TMP DP RH WIND PRES REMARKS BOSTON CLOUDY 57 55 94 N14 30.02R WORCESTER CLOUDY 54 53 97 NE10 30.03F WESTFIELD CLOUDY 59 56 89 N6 30.02S PROVINCETOWN CLOUDY 61 57 88 NE12G17 29.98S NANTUCKET LGT RAIN 62 60 93 N13 29.94S $$ ANZ330-335-338-340-345-350-353-355-010900- COASTAL MARINE OBSERVATIONS STATION/POSITION TIME SKY/WX TEMP WIND PRES VSBY WAVE AIR SEA DIR/SP/G HT/PER (UTC) (F) (DEG/KT/KT) (MB) (MI) (FT/S) NY HARB ENTRANCE NOT AVBL 4S FIRE IS 0800 68 N/A 3/ 5 20S FIRE ISLAND 0800 63 67 50/ 14/ 17 1014.1 5/ 6 23SW MTP 0800 N/A 4/ 6 HUDSON CANYON 0800 67 69 30/ 17/ 21 1012.2 5/ 6 EXECUTION ROCKS 0800 63 68 30/ 14/ 16 N/A WESTERN LI SOUND 0800 62 30/ 10/ 12 N/A 1/ 4 CENTRAL LI SOUND 0700 60 68 40/ 12/ 16 N/A 1/ 2 EASTERN LI SOUND 0700 60 66 30/ 12/ 16 N/A ROBBINS REEF 0800 63 50/ 10/ 12 1014.0 $$ >>>>>>>>>>>>>>>>>>>>>>>>>>>> KEY <<<<<<<<<<<<<<<<<<<<<<<<<<< > < > SKY/WX - SKY CONDITION/PRESENT WEATHER < > TMP - TEMPERATURE IN FAHRENHEIT < > DP - DEWPOINT IN FAHRENHEIT < > RH - RELATIVE HUMIDITY IN PERCENT < > WIND - DIRECTION AND SPEED IN MPH < > PRES - MEAN SEA LEVEL PRESSURE IN INCHES OF HG < > WCI - WIND CHILL INDEX < > VSB - VISIBILITY IN MILES < > HX - HEAT INDEX < > TC - TEMPERATURE IN CELSIUS < > VRB - VARIABLE WIND DIRECTION < > < >>>>>>>>>>>>>>>>>>>>>>>>>>>> KEY <<<<<<<<<<<<<<<<<<<<<<<<<<<

USA.gov is the U.S. government's official web portal to all federal, state and local government web resources and services.